Weather History for Key West NAF, FL

Change the Weather History Date:

Saturday, March 9, 2013

  Actual Average Record
Temperature  
Mean Temperature 69 °F -  
Max Temperature 75 °F 77 °F 85 °F (1991)
Min Temperature 63 °F 67 °F 57 °F (1971)
Cooling Degree Days 4    
Growing Degree Days 19 (Base 50)    
Moisture  
Dew Point 56 °F    
Average Humidity 64    
Maximum Humidity 81    
Minimum Humidity 42    
Precipitation  
Precipitation 0.00 in - - ()
Sea Level Pressure  
Sea Level Pressure 30.14 in    
Wind  
Wind Speed 9 mph (NE)    
Max Wind Speed 15 mph    
Max Gust Speed 21 mph    
Visibility 10 miles    
Events      
Averages and records for this station are not official NWS values.
T = Trace of Precipitation, MM = Missing Value Source: NWS Daily Summary

Daily Weather History Graph

Daily Weather History Graph

Search for Another Location

Airport:

Trip Planner

Search our weather history database for the weather conditions in past years. The results will help you decide how hot, cold, wet, or windy it might be!

Date:

Astronomy

Mar. 09, 2013 Rise Set
Actual Time 6:41 AM EST 6:33 PM EST
Civil Twilight 6:18 AM EST 6:55 PM EST
Nautical Twilight 5:52 AM EST 7:22 PM EST
Astronomical Twilight 5:25 AM EST 7:48 PM EST
Moon 4:53 AM EST (3/9) 4:41 PM EST (3/9)
Length of Visible Light 12h 37m
Length of Day
11h 51m
Waning Crescent, 5% of the Moon is Illuminated
Mar 9
Waning Crescent
Mar 11
New
Mar 19
First Quarter
Mar 27
Full
Apr 3
Last Quarter

Hourly Weather History & Observations

Time (EST) Temp. Dew Point Humidity Pressure Visibility Wind Dir Wind Speed Gust Speed Precip Events Conditions
12:53 AM 66.0 °F 59.0 °F 78% 30.15 in 10.0 mi NNE 8.1 mph - N/A   Clear
1:53 AM 66.0 °F 46.0 °F 48% 30.15 in 10.0 mi North 9.2 mph - N/A   Clear
2:53 AM 64.9 °F 59.0 °F 81% 30.12 in 10.0 mi NNE 6.9 mph - N/A   Clear
3:53 AM 64.9 °F 59.0 °F 81% 30.12 in 10.0 mi NNE 8.1 mph - N/A   Clear
4:53 AM 64.9 °F 57.0 °F 75% 30.12 in 10.0 mi NNE 8.1 mph - N/A   Clear
5:53 AM 64.0 °F 55.9 °F 75% 30.13 in 10.0 mi NNE 6.9 mph - N/A   Clear
6:53 AM 63.0 °F 55.0 °F 75% 30.14 in 10.0 mi NE 6.9 mph - N/A   Clear
7:53 AM 66.9 °F 54.0 °F 63% 30.16 in 10.0 mi NE 4.6 mph - N/A   Clear
8:53 AM 70.0 °F 52.0 °F 53% 30.17 in 10.0 mi NE 10.4 mph - N/A   Clear
9:53 AM 73.0 °F 54.0 °F 51% 30.17 in 10.0 mi NE 12.7 mph - N/A   Clear
10:53 AM 73.9 °F 52.0 °F 46% 30.17 in 10.0 mi NNE 12.7 mph 18.4 mph N/A   Clear
11:53 AM 75.0 °F 51.1 °F 43% 30.17 in 10.0 mi NE 11.5 mph - N/A   Partly Cloudy
12:53 PM 75.9 °F 51.1 °F 42% 30.15 in 10.0 mi NE 9.2 mph - N/A   Scattered Clouds
4:53 PM 73.9 °F 59.0 °F 59% 30.09 in 10.0 mi East 15.0 mph - N/A   Scattered Clouds
5:53 PM 73.0 °F 60.1 °F 64% 30.11 in 10.0 mi East 13.8 mph - N/A   Scattered Clouds
6:53 PM 71.1 °F 60.1 °F 68% 30.12 in 10.0 mi East 11.5 mph - N/A   Scattered Clouds
7:53 PM 70.0 °F 59.0 °F 68% 30.13 in 10.0 mi East 15.0 mph - N/A   Scattered Clouds
8:53 PM 69.1 °F 57.9 °F 68% 30.16 in 10.0 mi ENE 11.5 mph 17.3 mph N/A   Scattered Clouds
9:53 PM 69.1 °F 57.9 °F 68% 30.16 in 10.0 mi ENE 10.4 mph 20.7 mph N/A   Scattered Clouds
10:53 PM 68.0 °F 59.0 °F 73% 30.15 in 10.0 mi ENE 11.5 mph - N/A   Clear
11:53 PM 68.0 °F 57.0 °F 68% 30.15 in 10.0 mi ENE 12.7 mph 16.1 mph N/A   Clear